Theta_e
301 301 301 301 300 300 301 301 300 299 299 300 301 303 302 301 296 293 293 295 296 298 297 298 299 301 302 303 303 301 301 306 302 300 300 301 302 305 304 303 304 305 305 305 305 306 307 307 307 309 310 310 309 309 309 309 308 308 309 308 308 307 306 305 305 306 307 309 307 305 305 305 305 305
301 302 301 302 301 301 299 299 300 299 298 299 299 300 300 302 298 295 293 294 295 300 297 298 298 300 300 301 301 301 300 306 303 299 299 300 303 304 303 302 302 303 303 302 302 304 306 306 307 309 309 309 309 309 309 308 308 308 308 307 306 305 305 304 305 306 307 306 306 306 305 305 305 305
302 300 300 299 299 299 299 299 299 299 298 298 297 298 298 300 300 296 296 295 297 299 299 300 299 301 299 299 299 299 299 302 303 301 300 299 303 302 301 302 302 302 302 302 304 305 305 304 306 307 308 308 308 308 308 308 307 307 306 305 304 304 304 304 304 306 306 306 306 306 305 305 305 305
300 300 299 299 299 298 298 298 298 298 299 298 297 297 298 297 297 298 296 296 297 298 300 299 301 299 302 298 297 298 298 299 302 301 300 300 301 300 301 301 302 302 301 301 302 303 303 303 305 306 306 306 307 307 306 305 305 305 304 303 303 302 302 303 304 305 305 306 305 305 304 304 303 304
299 300 298 298 297 298 298 298 298 298 298 297 298 297 297 296 296 297 296 296 296 298 297 298 300 301 300 297 297 297 298 299 300 300 300 300 300 300 301 300 300 300 301 300 300 300 300 302 304 304 304 303 304 304 302 302 302 303 303 300 299 301 303 303 302 303 304 304 304 303 303 302 302 302
300 299 298 298 298 298 298 298 298 298 297 297 297 297 297 297 298 297 297 296 296 296 298 299 298 299 298 297 297 298 298 299 300 298 299 300 299 300 301 301 301 300 300 300 300 300 300 300 301 300 300 299 299 300 300 299 299 301 300 297 297 301 301 302 301 302 303 303 303 302 302 302 301 302
299 298 299 298 298 299 298 298 297 297 297 298 298 298 298 298 298 297 297 297 295 295 296 297 298 299 299 298 297 297 298 300 298 297 298 298 298 300 300 300 300 300 300 300 300 300 300 299 299 298 299 299 299 299 299 299 299 298 299 298 299 299 299 298 299 300 302 302 302 302 301 301 301 303
299 298 298 298 298 299 298 296 297 297 297 298 298 297 297 298 297 298 298 297 296 296 295 296 297 297 298 298 297 297 299 297 298 297 297 297 298 299 299 300 300 300 301 300 300 300 300 299 298 298 298 298 299 298 298 299 298 298 299 299 299 298 298 297 298 298 300 300 300 300 300 300 301 303
299 299 299 298 298 298 297 296 296 296 297 297 298 297 297 297 297 297 297 296 296 295 295 295 296 296 296 298 297 297 296 297 297 299 298 297 298 299 300 301 300 301 300 300 300 299 299 298 298 298 298 298 298 298 298 298 299 299 299 299 298 298 297 297 297 298 298 298 298 300 300 299 300 302
299 299 298 298 297 297 297 296 296 296 296 295 296 296 296 295 295 295 295 296 295 295 294 296 296 296 297 297 297 296 296 295 296 296 298 300 300 299 298 299 300 301 300 301 301 300 300 299 299 299 298 297 297 298 298 298 299 300 299 299 298 298 297 297 297 297 297 298 297 298 298 298 299 300
299 298 298 298 297 297 297 296 296 295 296 297 295 296 295 294 294 294 294 294 295 295 294 294 295 296 296 296 297 296 295 295 296 295 296 297 299 300 299 298 299 299 300 301 299 299 300 300 300 298 297 297 299 299 299 299 300 300 299 298 297 297 297 297 297 297 297 297 297 296 296 297 298 299
299 299 299 298 298 297 297 297 296 296 296 296 296 295 294 294 295 294 293 293 293 293 294 294 292 293 295 297 295 295 295 296 296 296 295 294 296 297 298 298 297 299 300 300 300 300 300 300 300 298 298 299 299 299 299 299 300 300 299 298 297 297 297 297 297 297 297 297 297 296 296 296 296 297
299 299 298 298 297 300 301 301 300 299 299 296 295 294 294 294 295 293 293 293 293 292 292 292 293 292 292 292 292 294 293 294 296 296 295 295 297 297 296 298 298 298 298 299 299 299 301 299 300 300 300 301 300 300 299 299 300 300 298 297 297 297 297 297 297 297 297 297 297 296 296 296 296 295
298 298 298 300 304 305 305 303 300 298 299 301 299 296 295 296 295 293 292 292 292 292 291 292 292 291 292 293 293 294 295 295 296 295 295 295 297 296 296 296 298 300 298 297 297 299 301 298 299 299 299 300 301 300 300 300 299 299 297 297 297 297 297 297 297 297 297 296 296 296 296 296 296 295
297 297 297 301 307 308 308 303 299 297 297 297 298 298 298 298 295 293 292 293 295 293 292 293 293 293 294 294 295 294 295 296 296 297 296 296 296 294 292 291 294 299 297 296 295 298 301 299 298 298 299 300 300 300 300 297 298 297 297 297 297 297 296 296 296 296 296 296 296 296 296 296 296 294
298 298 299 303 306 305 304 302 300 299 297 295 295 294 295 295 295 295 296 295 294 295 294 293 294 294 294 295 294 293 294 297 297 297 296 296 296 295 294 293 292 297 299 295 295 296 301 299 299 298 299 300 300 300 298 297 297 297 297 297 296 296 296 296 296 296 296 295 295 295 295 295 295 294
299 300 301 301 300 301 306 305 300 299 300 297 295 295 296 295 294 292 292 295 299 298 297 296 295 294 294 294 295 297 298 300 298 297 297 296 296 295 294 294 293 298 299 296 295 295 298 298 297 296 300 300 300 299 298 297 296 297 297 296 296 296 296 296 296 295 295 295 295 295 295 295 294 294
300 300 300 299 298 297 301 303 299 297 297 297 298 297 297 296 298 293 291 291 293 297 299 298 297 297 296 298 298 300 300 297 297 297 297 298 297 296 296 298 297 298 297 295 295 294 297 298 296 296 299 300 300 300 298 296 296 296 296 296 296 296 295 296 295 295 295 294 295 295 295 294 294 294
300 300 299 298 297 296 297 299 297 296 295 296 295 295 295 295 296 297 297 297 296 298 298 297 298 299 298 298 299 299 300 299 299 298 298 297 296 296 297 297 297 297 297 296 295 293 296 298 295 297 299 299 298 300 298 297 296 296 296 296 295 295 295 295 295 295 295 295 295 294 294 294 294 293
300 299 298 297 296 295 295 298 293 295 295 294 294 294 295 296 298 298 300 296 296 298 298 298 298 298 297 295 298 298 298 298 298 298 298 296 295 294 294 295 297 296 298 296 296 294 295 297 294 296 298 298 298 300 301 297 297 296 296 295 295 295 295 295 295 295 295 294 294 294 294 294 294 294
298 298 298 298 296 294 294 295 291 292 295 295 295 295 296 298 299 300 300 296 293 293 293 292 292 291 291 291 291 291 292 295 297 296 295 297 294 295 293 294 294 297 297 297 296 296 293 297 295 295 296 296 296 299 300 300 297 296 296 295 295 295 295 295 295 295 294 294 294 294 294 294 294 295
298 298 301 300 295 293 293 293 290 291 295 295 296 297 297 297 297 298 297 296 296 293 293 292 291 291 291 291 291 292 292 292 295 297 297 299 295 295 294 293 294 294 295 298 297 295 295 297 296 294 295 294 297 299 299 299 299 297 296 295 295 295 295 295 295 294 294 294 294 294 294 293 294 296
298 297 301 303 297 295 294 291 291 291 296 296 296 297 296 296 296 297 295 294 295 295 295 295 296 295 295 298 298 298 295 293 296 298 299 297 297 296 295 295 294 294 296 298 297 295 296 296 296 293 294 292 295 297 299 299 299 299 299 298 298 296 295 295 294 294 294 294 294 294 293 293 294 296
297 297 297 300 294 291 292 292 291 291 293 296 296 296 295 295 295 297 294 294 294 296 297 295 295 296 296 295 295 296 296 297 299 298 298 297 298 297 296 295 294 293 295 298 296 297 296 292 294 294 294 291 292 296 298 298 298 298 299 298 297 296 296 296 295 294 294 294 293 293 293 293 293 295
298 298 298 299 297 291 292 292 292 292 292 294 297 296 296 297 297 295 296 297 297 296 296 296 296 295 295 295 295 295 295 296 298 299 297 297 297 297 296 295 294 295 296 298 294 296 296 294 294 295 294 292 293 293 296 296 298 298 298 297 297 298 297 297 296 297 295 294 294 293 293 293 293 294
299 299 299 299 297 292 292 292 292 292 292 292 298 297 293 292 291 296 298 297 297 296 294 293 293 294 293 293 294 295 297 298 298 298 297 296 296 297 298 298 296 295 297 299 292 298 295 295 295 295 294 292 295 294 293 295 298 298 297 298 298 298 298 296 296 296 297 297 296 294 293 293 293 293
300 301 301 301 298 292 292 292 292 292 292 293 295 293 291 291 290 293 297 295 295 294 293 293 293 293 293 292 293 294 296 296 295 296 296 296 295 296 296 297 298 298 300 299 298 298 296 295 294 294 294 293 291 293 293 293 294 297 296 297 297 298 299 297 295 295 296 296 296 294 293 293 293 293
301 302 301 300 295 293 292 292 292 292 292 294 292 291 291 290 291 296 295 293 293 292 291 291 292 292 293 292 292 293 295 296 296 296 296 296 296 296 296 296 296 296 297 297 296 296 296 295 295 295 295 293 291 291 291 294 295 295 294 296 297 298 298 297 295 296 296 296 296 295 295 295 296 295
302 298 296 295 293 293 292 292 292 292 292 291 290 290 289 293 294 294 294 293 292 292 291 291 291 291 291 292 292 294 294 295 295 295 297 296 296 295 295 295 295 296 297 298 297 296 295 296 296 296 294 293 292 293 292 292 293 294 294 293 294 295 296 297 296 295 295 295 295 295 295 295 295 295
295 295 294 294 293 292 293 296 296 296 296 291 290 289 291 295 294 294 293 292 292 291 291 290 290 291 291 290 292 293 293 294 295 295 296 297 298 298 297 298 299 298 297 296 297 297 295 295 295 295 294 294 293 293 294 292 293 295 294 294 293 295 298 296 295 295 294 293 294 295 296 296 296 294
298 297 297 296 294 295 293 293 293 294 293 292 292 292 294 293 293 292 292 291 291 291 290 290 290 291 291 291 292 294 294 294 295 295 294 294 295 296 296 295 295 296 299 299 298 297 296 296 296 295 294 295 296 297 296 293 292 293 295 296 294 292 293 295 295 294 294 293 294 296 297 296 297 296
297 296 292 292 294 294 294 294 293 293 293 292 291 291 292 292 292 293 293 292 291 291 292 291 291 291 292 292 293 293 293 294 294 294 294 294 295 294 295 294 294 294 295 296 297 297 294 297 296 296 295 295 294 296 296 294 293 293 294 295 294 295 295 294 293 294 294 294 295 294 295 296 296 296
293 292 292 292 292 293 291 291 292 292 292 292 291 292 291 291 291 291 292 291 291 291 291 291 292 292 292 292 292 292 292 294 294 294 293 293 293 293 292 293 293 293 293 294 295 297 296 296 296 296 295 295 295 295 293 292 295 295 294 294 294 293 295 295 294 293 293 294 293 293 295 297 298 297
292 292 291 292 291 291 292 291 290 291 291 291 291 290 289 290 290 290 291 291 292 292 292 292 291 292 291 291 292 292 292 293 293 292 291 294 293 292 292 292 293 294 292 293 293 294 295 295 295 296 296 294 296 295 295 293 293 295 295 295 294 293 294 295 294 294 293 292 291 292 294 295 297 297
290 290 290 289 290 290 291 291 291 290 290 289 290 291 291 291 290 289 291 292 292 291 289 290 291 291 290 291 291 290 291 292 292 293 293 292 293 293 293 292 293 293 293 294 294 295 293 292 292 293 295 295 296 299 295 296 294 294 295 295 294 293 293 294 293 293 294 294 294 292 293 294 295 296
290 291 291 290 290 290 289 288 289 290 291 290 290 291 289 289 290 290 290 291 292 291 290 289 288 288 288 290 290 291 291 289 291 292 292 292 292 292 292 292 292 293 293 293 293 293 291 291 291 290 290 290 290 289 293 296 294 295 292 292 294 293 292 293 293 294 294 293 294 293 290 290 293 295
290 290 292 292 292 291 289 290 290 290 291 291 291 291 290 289 290 291 292 291 292 291 291 290 290 289 289 289 289 288 289 289 288 289 289 290 291 291 291 290 289 290 291 292 292 291 291 291 291 291 291 290 289 288 290 295 292 293 294 292 291 291 290 290 292 293 294 294 294 294 292 290 292 295
291 291 291 292 292 292 292 291 290 289 290 290 290 290 291 291 292 292 292 291 289 289 290 290 289 290 290 289 289 289 289 289 288 288 289 291 290 290 291 290 291 290 291 291 291 291 291 291 291 291 291 289 288 289 289 291 291 292 292 293 290 290 292 289 290 290 290 294 293 293 294 291 293 295
292 291 290 291 291 292 291 291 290 290 291 290 290 290 290 290 291 291 290 290 290 290 290 290 290 289 289 291 290 289 289 289 288 289 288 289 291 292 292 291 290 290 290 291 292 292 291 291 292 292 292 291 289 290 290 288 289 292 291 290 291 289 290 290 289 290 291 291 291 293 295 296 294 290
292 292 292 292 292 291 291 291 290 290 290 290 290 290 289 289 290 290 290 289 290 291 291 291 290 290 288 289 289 290 289 290 290 290 290 290 289 290 291 289 290 290 289 290 289 291 292 292 293 293 293 293 292 290 289 289 289 290 290 293 291 292 290 291 289 289 290 291 290 291 291 292 292 294
291 291 292 292 293 292 291 291 292 291 292 292 292 290 290 290 290 290 290 290 289 290 289 290 289 289 289 290 288 289 289 289 289 289 290 289 288 288 288 287 289 289 290 289 291 290 291 294 292 285 288 290 289 290 289 290 291 292 292 292 291 290 290 291 292 289 289 291 291 290 290 290 290 291
292 292 293 293 293 293 293 292 293 292 292 292 292 291 291 290 290 289 289 288 291 288 288 289 288 288 288 288 289 288 288 289 289 289 289 289 289 289 287 288 290 290 289 290 291 292 293 293 291 292 292 290 289 290 290 290 289 291 290 291 291 291 290 289 290 290 293 292 290 290 290 291 291 290
291 292 292 292 292 292 292 292 292 292 292 292 291 292 291 290 290 290 290 289 289 289 289 289 289 289 289 289 289 288 288 288 288 289 289 289 289 290 290 289 290 291 291 290 292 291 290 291 291 290 289 289 288 289 290 290 289 288 288 290 290 290 291 290 289 289 289 289 290 290 291 289 288 287
292 292 292 293 292 292 292 291 291 290 290 291 290 291 288 290 289 290 290 290 289 289 289 289 288 288 288 289 288 288 288 289 289 289 289 289 289 290 290 290 289 289 290 290 290 290 291 290 290 289 289 290 289 289 290 289 290 290 289 289 288 289 290 291 291 290 290 289 289 288 288 289 289 288
292 292 292 292 292 292 291 290 290 290 290 290 288 289 288 289 289 289 289 289 289 289 288 288 289 289 289 289 289 289 289 289 289 289 290 290 290 289 289 289 290 289 289 289 289 290 290 290 290 289 288 289 287 289 289 288 288 288 288 287 287 289 290 289 290 291 291 292 290 288 288 289 289 288
Wind_Speed
6 6 6 6 5 4 3 3 3 3 3 4 6 7 10 9 8 7 6 5 4 3 2 3 0 1 1 1 1 2 2 3 3 2 3 4 4 7 9 9 9 9 9 9 10 11 11 12 13 14 15 15 15 15 16 17 17 19 20 23 24 23 22 22 20 20 22 27 29 29 30 28 27 26
6 6 5 5 5 3 4 4 3 3 3 5 5 5 3 5 10 7 8 6 3 3 1 1 3 0 1 1 2 2 3 4 4 3 4 4 4 9 8 9 9 9 10 10 10 10 10 12 13 14 14 15 15 15 16 17 18 19 21 21 21 20 21 21 20 20 22 26 29 29 30 28 27 26
6 7 7 5 5 4 5 5 4 3 3 3 3 3 4 4 5 8 6 6 4 2 3 1 1 2 1 1 1 3 2 3 4 4 4 4 8 9 6 9 10 10 10 10 11 12 11 11 11 12 14 15 15 16 17 18 18 19 19 18 18 20 20 20 20 19 21 25 28 30 30 29 27 27
6 7 7 6 6 5 5 5 4 4 3 3 4 4 4 4 5 6 6 6 6 4 1 1 1 3 1 2 4 4 3 3 4 4 4 4 6 4 4 6 8 10 10 11 10 11 11 11 11 12 13 14 15 16 17 17 17 17 16 16 16 17 18 19 19 19 20 23 28 30 30 29 27 27
6 6 7 6 5 4 6 4 4 4 3 4 4 4 5 5 4 6 5 6 6 2 1 1 1 1 1 2 2 3 3 4 4 3 3 3 3 3 4 5 7 10 10 11 11 11 11 11 12 13 12 13 14 14 14 14 15 16 16 16 16 16 18 20 18 17 19 22 28 29 30 30 27 26
4 6 7 6 5 4 6 5 4 3 4 4 5 4 4 4 4 1 5 4 6 5 0 2 0 0 0 3 1 1 3 3 3 4 5 3 2 3 4 4 5 10 10 11 11 12 11 12 12 12 12 12 13 13 14 15 15 15 15 15 16 17 18 20 19 17 19 21 26 28 29 29 28 26
6 6 6 6 5 4 6 4 3 3 4 3 5 4 3 5 4 2 4 6 4 7 3 0 1 0 1 2 1 2 2 3 2 3 3 4 3 1 3 4 4 8 10 11 11 12 12 12 12 12 12 12 13 13 13 14 14 14 15 15 16 18 19 19 18 16 18 20 23 26 28 29 29 28
6 7 7 5 5 5 6 4 4 3 3 4 5 5 4 4 4 3 4 4 5 3 5 1 2 1 1 3 2 3 2 2 2 2 4 2 3 4 3 4 5 7 11 11 10 12 12 12 12 12 12 12 12 12 13 14 14 14 14 15 16 18 19 20 20 18 17 18 21 23 27 27 29 29
7 7 7 6 6 6 7 4 4 4 5 4 5 5 3 4 3 3 4 3 4 6 5 3 2 1 2 2 2 2 3 3 3 4 4 3 2 4 4 3 4 7 10 10 10 11 12 12 11 11 12 12 12 12 13 14 14 14 14 15 16 18 19 20 20 20 18 18 18 22 26 27 29 29
6 7 7 7 7 7 8 6 5 5 6 5 5 6 4 3 4 5 4 5 5 6 4 4 3 1 1 1 3 2 3 3 4 5 5 5 3 4 6 5 4 4 4 5 6 8 9 10 12 11 11 12 12 12 13 13 13 14 14 15 17 18 19 19 20 20 19 19 19 20 22 24 28 29
6 6 7 7 6 7 7 8 7 6 5 5 6 5 6 4 6 5 5 5 6 6 5 2 2 2 3 3 1 1 1 3 1 2 4 5 3 4 3 5 4 3 6 8 8 7 8 9 8 9 11 11 11 12 12 12 13 14 15 16 17 18 19 19 20 20 20 19 19 19 20 21 23 28
6 6 7 7 7 7 7 8 7 7 7 6 7 6 7 7 7 7 7 6 6 6 6 5 5 3 3 0 2 2 3 2 1 1 1 3 5 5 4 2 4 3 3 6 7 7 7 8 9 11 11 10 11 12 11 12 14 15 16 16 17 18 19 19 20 20 20 20 19 19 20 21 21 25
6 6 6 7 6 6 8 10 10 10 9 7 7 6 6 6 5 5 5 5 5 5 5 4 2 4 3 2 1 1 1 1 3 2 1 2 2 3 5 6 2 2 3 6 6 6 5 6 6 5 6 7 9 10 12 11 13 16 16 17 17 17 18 19 19 20 21 20 20 20 20 21 22 22
5 6 6 6 11 12 13 13 13 13 11 10 9 9 8 8 6 6 6 6 5 5 5 5 6 5 4 3 3 2 3 2 2 2 0 2 3 3 5 4 3 1 2 5 7 7 2 3 6 5 6 6 6 6 7 7 11 14 16 16 16 17 18 19 19 20 21 21 20 20 20 21 22 22
7 5 5 6 9 11 11 12 14 12 12 11 9 10 10 5 7 8 6 4 4 5 4 3 2 3 4 4 3 3 3 3 3 2 1 2 2 2 3 5 7 1 1 3 4 7 2 1 6 7 7 7 6 7 7 13 15 16 16 16 16 17 18 19 19 19 20 21 21 20 20 20 21 22
7 7 6 7 7 7 8 7 8 7 9 7 4 7 5 3 1 1 4 6 5 3 4 3 4 3 4 3 3 3 2 3 2 2 1 2 2 2 2 2 4 3 3 4 4 7 5 4 5 7 7 6 6 8 11 14 15 16 16 16 17 17 18 18 19 19 20 20 20 20 20 20 21 21
8 8 8 7 6 5 9 6 5 4 4 3 5 7 6 5 4 5 1 2 3 5 4 4 4 5 3 3 4 4 4 1 2 1 1 2 2 2 3 4 3 7 3 4 3 5 5 3 6 7 8 6 6 8 10 14 15 15 16 17 17 17 18 18 18 19 20 20 21 20 20 20 20 21
8 9 8 7 6 5 5 3 4 3 4 4 4 4 4 3 3 2 3 3 2 5 5 5 5 5 4 4 4 4 3 2 2 2 3 2 3 3 4 4 5 7 2 3 3 4 6 4 4 6 8 7 7 7 11 14 14 15 16 16 17 17 17 18 18 19 19 20 21 21 20 19 20 21
9 9 8 8 8 6 5 3 5 5 4 4 4 4 4 4 4 3 4 5 5 5 5 6 6 4 5 6 3 3 3 4 3 3 3 2 3 4 4 5 5 6 3 3 1 4 6 3 5 7 7 7 8 6 9 12 14 15 16 16 17 17 18 18 18 18 19 19 20 22 21 19 20 20
7 8 8 8 7 7 6 5 9 6 6 5 5 5 4 4 3 5 5 6 5 6 6 5 5 4 4 5 4 3 3 2 2 2 1 1 2 2 3 4 4 2 2 3 2 2 4 2 2 5 7 6 7 7 6 11 15 15 15 16 16 18 17 18 18 18 18 18 19 20 21 20 20 21
8 8 7 8 7 6 6 7 10 10 8 6 6 6 5 4 3 5 3 2 3 7 8 6 5 5 7 8 8 6 5 5 2 1 1 4 2 1 3 4 3 4 2 1 3 2 5 3 1 5 6 6 6 6 7 7 11 13 15 16 17 17 17 17 17 18 18 18 18 19 20 21 20 21
6 8 13 9 8 7 7 10 12 11 9 6 6 6 5 5 5 6 4 2 2 1 4 5 5 6 8 9 9 9 8 8 7 5 5 3 3 2 3 4 3 6 3 2 4 2 4 4 1 4 5 6 4 5 6 7 8 12 12 16 17 16 17 17 17 17 18 19 18 18 18 19 19 13
5 6 7 11 8 8 8 13 13 13 10 6 6 6 5 5 6 7 4 4 4 2 2 2 2 4 4 4 3 4 5 6 8 7 6 2 4 4 4 4 3 4 3 2 4 2 3 4 1 1 5 4 5 5 6 8 7 7 6 9 11 16 17 17 16 16 17 18 19 18 17 18 17 10
6 6 6 7 11 11 11 12 13 13 13 9 6 5 5 5 8 5 4 5 5 4 4 3 1 3 4 4 3 3 4 3 5 6 5 4 4 5 5 3 3 3 3 1 3 1 2 1 4 1 0 3 5 7 7 8 7 7 6 7 7 13 14 15 13 15 15 16 18 18 17 16 15 9
8 7 7 5 9 13 13 13 13 14 14 12 7 7 6 8 4 3 4 6 5 4 3 2 2 3 4 4 3 3 3 4 4 5 6 5 5 5 5 4 3 5 6 4 5 1 3 2 4 2 1 1 3 4 6 6 7 6 7 7 7 8 8 9 9 9 11 15 16 17 17 16 15 11
8 9 7 7 10 14 13 13 13 13 13 13 7 9 11 9 7 5 3 3 4 4 3 3 3 3 3 3 3 3 4 4 4 4 4 5 5 6 6 6 5 4 5 1 7 3 2 3 3 3 2 2 4 3 5 6 7 6 7 7 7 7 5 7 8 9 8 8 9 12 15 18 14 14
10 8 7 7 11 14 14 14 14 13 13 9 9 12 11 10 9 5 3 3 4 4 4 3 4 5 4 4 4 4 3 2 1 2 3 3 4 5 5 6 6 8 8 2 3 2 3 4 1 2 4 2 4 6 4 4 6 7 8 8 9 8 5 5 8 9 9 8 8 14 13 13 15 14
8 7 7 8 13 14 14 14 14 13 11 9 12 11 11 9 7 5 4 4 4 4 4 4 5 6 5 3 4 5 4 3 3 4 5 4 4 5 5 5 6 7 8 6 4 4 5 5 4 3 4 4 5 5 7 6 6 6 7 9 8 8 7 6 8 10 10 8 7 8 7 8 7 9
7 8 10 10 11 12 13 14 13 10 10 11 8 9 9 8 4 5 5 5 4 4 6 5 5 5 6 5 5 4 3 4 4 4 5 4 3 3 4 5 5 6 5 5 4 4 5 5 6 3 2 3 4 5 3 6 4 6 5 7 8 10 9 7 7 8 10 9 8 8 7 7 8 7
10 10 9 10 9 8 7 7 6 7 8 9 9 8 8 5 6 6 6 5 5 6 6 5 6 6 3 3 3 3 2 3 5 2 3 5 5 2 2 4 5 5 5 5 4 4 4 5 6 4 4 4 5 6 5 4 6 6 6 5 6 8 4 9 10 9 9 10 9 8 7 6 6 7
6 7 7 6 7 5 9 8 6 5 5 5 5 5 5 6 6 6 6 7 7 7 6 5 5 4 4 2 3 4 3 5 4 2 4 4 6 3 1 1 5 7 5 3 4 4 4 4 4 3 4 6 6 5 3 3 5 6 6 5 4 5 9 9 9 9 9 9 8 7 7 8 7 7
5 5 4 5 4 4 4 3 3 3 3 4 4 5 5 5 6 6 5 3 4 5 4 3 2 3 3 4 4 3 3 5 5 2 3 3 4 1 0 1 4 4 5 7 1 4 3 3 3 3 5 5 4 7 4 3 4 4 6 6 5 6 5 7 9 9 10 8 7 9 8 7 8 8
4 5 4 4 4 5 5 4 4 4 4 4 4 5 5 4 5 5 5 7 8 6 4 5 4 5 3 4 3 3 4 5 4 2 3 3 4 2 2 4 5 4 5 6 6 5 2 1 3 4 5 5 6 6 4 7 4 2 5 6 6 7 7 7 7 8 10 9 9 8 8 8 7 7
5 5 5 5 5 5 4 5 5 5 6 5 4 5 5 4 5 5 5 5 4 3 4 4 5 6 5 5 5 4 5 6 3 2 3 3 3 4 3 3 5 5 3 5 5 6 4 2 3 3 4 4 5 7 6 5 5 5 5 5 4 6 7 7 7 7 5 3 5 7 8 9 9 9
4 4 5 5 5 6 6 4 4 5 4 4 4 4 4 4 5 4 4 6 5 5 3 5 6 5 4 7 6 5 5 5 5 2 2 2 3 4 3 3 5 5 4 4 5 3 2 4 4 5 5 5 6 4 6 7 1 5 4 4 3 4 7 6 6 7 7 6 5 7 7 8 10 10
4 4 5 4 6 6 5 4 5 4 4 4 4 4 2 3 5 6 6 6 5 5 5 4 4 4 5 5 6 4 4 4 4 4 3 3 4 3 2 4 4 5 4 5 6 3 2 2 1 2 1 3 1 2 4 6 8 2 3 4 5 3 5 6 6 5 5 7 6 5 5 6 9 10
4 5 6 7 7 6 5 6 6 6 5 5 4 4 4 4 6 6 7 6 6 5 6 4 4 3 3 4 5 4 3 3 4 4 4 3 3 3 3 3 5 4 4 5 3 4 2 2 1 2 4 3 3 3 4 0 4 6 3 3 5 3 3 5 6 5 4 4 6 6 4 3 6 10
6 7 7 6 6 6 5 5 5 5 5 5 5 5 5 6 5 6 5 6 6 5 5 3 4 4 4 5 4 4 3 3 3 4 3 3 2 2 2 2 3 3 4 5 4 3 1 2 3 2 1 2 4 4 6 3 2 1 2 2 3 4 4 3 4 5 4 3 3 6 4 3 6 8
6 7 7 7 6 6 7 7 7 6 5 4 5 5 6 6 5 4 5 7 6 7 6 6 5 6 5 5 4 4 3 3 3 4 4 2 4 4 3 2 4 3 2 4 4 3 1 2 3 2 2 2 2 3 3 4 5 2 1 5 4 3 1 2 4 4 3 5 5 4 3 5 7 9
6 6 6 5 5 5 6 5 5 6 6 6 6 6 6 6 6 6 6 6 5 6 5 5 5 4 3 3 3 2 3 6 6 4 3 3 2 3 3 1 2 1 1 2 4 6 5 4 2 3 2 4 4 2 2 3 5 4 3 6 4 3 3 3 3 3 4 3 4 5 6 4 4 6
5 6 6 5 5 5 5 6 6 4 5 5 5 5 6 6 6 6 6 5 4 3 4 4 2 4 4 3 3 3 4 4 4 4 4 3 3 3 3 2 1 2 1 3 4 5 7 4 1 1 2 2 1 1 1 2 3 3 3 1 4 6 6 6 4 2 2 4 5 4 5 6 5 6
6 6 5 5 6 5 5 5 5 5 5 5 5 5 6 5 5 6 5 4 5 3 3 3 3 3 3 3 3 3 4 5 4 4 3 3 3 2 2 2 2 2 2 3 4 6 4 2 1 3 2 1 0 1 3 3 3 4 3 3 3 5 6 7 7 4 4 4 4 5 4 6 5 7
7 6 6 5 5 4 5 5 5 6 5 5 6 6 4 4 3 4 3 4 4 3 4 4 3 3 4 3 3 3 4 5 5 4 3 3 3 3 3 3 4 3 3 3 4 4 4 4 3 2 0 1 1 1 3 3 2 2 3 3 4 3 4 3 3 6 5 1 0 3 1 1 3 7
5 6 5 5 5 5 5 5 5 5 5 6 4 5 4 4 4 4 4 4 3 4 4 4 3 3 4 3 3 3 4 4 3 4 4 4 3 3 4 3 3 2 2 2 3 4 3 2 2 1 1 2 1 1 3 2 2 1 2 3 3 3 3 4 2 3 3 5 6 6 4 2 4 6
5 5 5 5 5 5 6 6 6 5 5 5 3 4 4 3 4 3 3 3 4 4 4 4 3 4 4 3 3 4 5 4 3 3 2 2 2 3 3 3 2 2 2 1 2 4 3 2 1 0 1 2 1 1 1 1 2 2 2 2 4 3 3 2 2 3 2 3 8 12 10 10 12 11
Wind_Direction
140 133 150 145 144 150 124 105 116 130 134 173 179 181 170 165 151 168 183 212 182 216 212 140 63 317 298 11 354 6 11 12 19 356 360 351 344 347 347 346 349 354 348 348 339 336 340 342 341 346 350 351 348 341 333 330 326 324 324 330 333 330 327 324 320 317 321 332 336 339 338 336 332 330
130 124 117 134 124 122 103 105 108 117 139 150 175 182 152 168 161 164 171 203 209 150 199 211 140 199 344 318 358 26 11 346 11 354 1 354 344 348 339 346 347 345 345 343 338 334 336 335 339 343 343 345 342 334 329 328 326 324 329 332 329 327 327 326 321 316 323 332 336 338 339 335 330 329
133 131 126 120 114 119 114 102 92 76 93 115 132 145 147 161 149 155 142 144 226 178 155 201 262 189 299 338 347 17 352 341 355 357 357 350 348 347 337 337 338 338 338 337 335 337 336 331 329 332 336 341 336 332 329 326 324 324 327 327 326 329 327 323 318 317 321 330 335 338 338 334 329 325
135 130 129 133 133 131 114 99 85 94 81 100 98 114 133 132 147 146 139 149 165 206 163 153 247 231 212 15 39 10 346 326 355 356 349 338 342 343 341 326 324 328 329 330 330 331 331 330 329 335 336 336 332 332 328 324 322 322 323 328 327 325 324 322 319 317 320 327 334 337 337 335 330 325
134 134 132 135 126 128 115 109 103 92 93 94 86 106 110 113 140 141 125 128 130 98 30 272 208 334 305 27 28 13 340 339 335 334 296 326 331 337 327 320 320 321 323 324 326 328 328 329 333 337 333 330 328 326 325 323 322 321 323 326 327 324 325 328 322 317 318 325 333 336 335 335 330 325
143 139 133 128 118 105 122 127 123 126 113 102 96 65 92 103 109 188 110 121 132 148 52 133 120 312 293 131 276 5 323 321 311 334 334 325 345 330 326 324 319 315 315 321 324 324 326 330 332 330 328 329 329 327 325 322 320 321 325 325 326 327 328 330 327 319 320 323 332 335 335 335 332 326
141 133 135 135 124 114 112 115 124 117 101 81 90 80 60 81 60 55 114 127 108 139 140 3 359 339 301 168 191 250 234 268 274 285 318 321 317 305 313 312 299 310 319 322 318 320 327 331 328 326 328 330 328 324 322 320 321 324 327 327 327 329 330 330 330 325 321 323 327 333 334 335 333 328
148 148 137 145 134 125 122 128 127 95 92 93 90 78 48 75 65 45 78 78 124 146 122 289 207 262 328 259 280 316 283 286 277 266 285 260 290 315 338 328 312 320 315 313 316 325 328 326 321 322 327 328 325 322 321 324 326 328 327 327 328 330 331 332 332 330 323 319 324 328 334 334 332 330
152 152 153 148 139 138 133 139 131 129 113 97 97 95 70 82 64 57 67 84 97 121 128 150 254 301 271 305 319 303 342 315 323 315 323 307 299 332 329 311 305 299 308 319 326 323 319 314 317 322 326 327 326 325 326 327 327 326 326 328 331 332 333 333 332 329 324 321 323 327 333 333 332 331
152 151 146 146 148 151 151 156 131 127 126 118 110 114 109 95 80 86 65 73 100 114 129 139 144 12 345 16 256 307 336 326 324 330 322 330 23 25 350 335 323 323 318 327 330 319 314 316 319 321 326 325 323 324 325 324 324 325 329 334 334 333 333 333 331 327 324 323 323 327 330 331 332 332
146 143 142 145 152 155 149 145 151 138 137 135 137 147 145 148 131 129 127 134 132 140 141 132 150 170 210 177 242 238 257 261 238 306 313 335 338 345 347 320 323 314 310 303 302 304 299 301 310 321 324 324 322 325 325 323 326 329 334 336 334 333 332 331 329 326 325 324 324 326 328 328 329 332
144 147 150 153 158 159 156 147 153 152 153 164 158 174 164 173 158 155 159 153 149 153 158 161 176 200 190 191 206 282 338 341 268 237 274 312 324 335 328 230 282 293 298 317 324 320 315 325 331 333 329 323 325 326 327 325 327 331 334 334 334 333 331 329 328 327 327 327 327 326 328 328 329 331
143 146 157 158 155 164 165 166 168 184 170 154 166 189 176 176 160 146 156 158 154 161 152 149 80 166 200 188 66 312 219 227 279 294 349 314 307 314 317 306 255 213 317 318 313 312 325 318 320 318 318 321 324 324 328 325 327 329 331 333 334 332 329 328 329 329 329 330 330 328 328 329 331 332
149 153 158 169 170 170 172 178 185 184 182 176 172 169 188 178 162 165 161 167 170 156 154 171 170 180 192 193 208 207 244 250 262 265 50 326 322 329 307 288 262 341 17 324 319 304 299 306 307 325 317 306 321 324 323 320 323 324 329 332 332 331 330 330 330 330 331 332 332 331 329 330 333 334
158 160 169 175 178 179 182 183 190 192 187 197 196 177 187 181 169 160 157 160 148 159 167 146 167 186 176 214 193 213 249 241 242 284 265 290 302 354 355 324 314 125 22 316 285 298 294 331 333 326 322 316 319 319 317 319 322 325 326 328 332 334 332 331 332 332 332 334 333 332 332 333 335 336
152 160 171 185 183 184 187 185 189 194 198 206 204 179 180 168 139 1 140 156 166 181 151 171 205 175 187 217 179 245 230 239 229 219 244 231 251 295 300 268 280 275 55 328 304 295 310 351 340 326 314 314 314 313 314 317 323 323 325 331 335 336 334 333 333 334 335 334 333 332 333 335 337 338
162 164 171 180 187 198 199 178 158 174 183 179 161 150 147 151 174 204 303 23 166 156 149 173 201 207 183 180 231 203 218 226 280 263 253 219 217 229 269 256 269 297 25 326 289 299 310 2 342 320 304 316 315 316 320 319 319 322 329 332 335 337 335 334 335 337 337 336 334 333 334 336 339 340
168 171 170 174 193 205 213 167 135 146 159 144 132 133 139 162 202 228 237 246 178 186 183 176 205 219 170 205 212 219 168 172 239 239 264 243 277 246 248 281 272 275 344 269 296 291 321 1 336 315 309 318 314 306 310 313 320 326 330 334 335 337 336 336 336 337 338 337 336 333 334 336 339 342
176 174 177 180 186 185 193 138 147 156 159 134 121 145 175 204 220 234 241 235 224 210 206 202 217 218 196 227 218 192 203 225 231 227 255 273 277 296 289 272 247 271 242 207 279 307 300 358 334 309 309 318 310 304 310 317 325 329 332 333 335 336 337 336 336 337 338 340 338 333 334 336 338 340
178 176 177 179 184 188 180 164 160 156 140 145 157 182 202 222 237 242 231 231 229 229 226 220 216 231 231 235 228 191 203 225 233 262 312 303 254 282 339 297 298 281 203 201 207 276 290 305 302 293 305 310 305 307 307 326 327 327 329 334 336 336 336 336 336 335 338 341 339 335 333 336 337 338
185 183 181 181 180 179 188 174 161 156 148 163 176 191 203 218 235 253 238 229 263 245 238 236 232 240 251 256 261 249 234 236 214 158 262 250 184 160 300 296 311 286 316 225 196 209 284 281 280 293 301 309 295 303 312 307 316 325 333 336 336 334 334 336 336 335 337 341 341 336 335 337 337 336
191 196 193 185 175 178 188 170 166 163 161 180 189 190 202 218 240 256 260 316 301 230 217 240 249 251 255 260 265 262 246 221 196 178 222 213 144 233 214 260 274 293 290 234 155 255 258 305 263 295 290 309 272 285 298 323 325 333 336 335 332 333 334 335 335 335 337 340 339 337 338 338 337 338
198 205 212 197 181 185 179 170 169 170 169 184 189 188 184 219 236 240 210 222 239 262 279 298 275 265 249 244 242 252 250 214 199 208 230 134 189 236 244 246 298 308 293 227 166 325 291 321 294 285 323 316 282 281 313 324 325 323 325 331 329 331 335 333 333 336 337 338 336 339 339 341 340 340
210 211 216 212 191 185 175 173 172 177 181 187 194 169 195 213 242 227 199 220 211 223 214 240 304 284 290 285 290 303 281 258 212 213 226 226 212 219 247 241 224 258 265 255 169 235 270 173 287 163 285 314 316 324 326 317 320 311 314 327 320 330 330 333 334 333 336 337 338 337 339 340 347 343
193 202 206 210 192 185 182 181 184 186 192 199 187 187 199 212 203 128 200 217 206 220 221 262 290 286 303 291 284 268 257 244 215 211 213 214 212 214 228 240 232 252 252 245 175 158 273 295 299 307 329 205 255 305 304 301 298 314 331 324 312 325 330 327 329 328 335 338 338 336 335 339 347 353
206 207 200 201 195 187 187 188 192 196 198 201 196 205 211 206 180 198 190 191 177 202 208 239 260 259 272 284 279 251 224 220 215 209 214 210 208 211 220 218 220 253 267 217 168 185 251 287 233 296 301 330 290 281 307 312 301 311 319 316 321 322 329 323 323 326 337 338 333 340 331 330 343 343
207 206 204 206 185 185 190 193 197 200 200 189 213 215 206 207 199 191 186 173 189 213 233 256 269 270 261 270 267 277 281 274 267 250 229 221 211 222 227 231 231 237 260 227 194 198 199 261 246 246 286 279 287 301 291 301 314 325 322 325 326 319 327 328 328 326 331 337 333 330 327 330 335 338
202 196 201 201 188 186 190 196 201 204 191 198 212 215 208 198 187 187 176 188 201 211 249 251 258 258 248 238 265 257 254 280 306 296 286 272 225 228 235 232 241 243 260 261 238 224 209 243 268 227 234 270 285 297 305 293 284 305 315 316 310 319 334 338 332 326 324 335 334 335 329 329 333 337
198 208 201 196 187 190 191 198 202 203 201 207 205 206 199 182 162 186 195 197 178 204 227 229 241 258 253 234 245 278 294 292 293 296 291 259 243 235 243 252 248 252 241 245 227 208 208 215 248 253 219 226 249 266 251 281 296 296 315 315 326 329 322 322 328 330 329 330 338 332 331 317 326 337
193 198 194 186 183 181 189 182 185 200 206 196 195 193 180 179 185 186 187 187 183 223 231 230 236 243 252 243 248 265 282 294 279 311 293 307 272 200 317 319 286 247 228 237 220 215 210 216 237 238 263 245 224 261 267 288 302 304 309 315 311 302 305 338 333 331 334 332 329 329 321 321 329 343
180 187 187 180 175 165 176 180 183 186 151 151 174 180 181 186 194 195 199 201 207 219 227 233 239 247 249 300 296 270 255 268 269 220 252 270 275 291 222 250 283 298 288 190 214 221 205 224 217 212 258 299 298 256 237 229 278 297 306 322 342 341 314 317 324 332 338 330 317 322 337 338 341 354
161 147 120 115 107 118 111 137 138 170 179 183 171 183 186 196 198 207 207 209 222 234 219 249 251 269 231 261 256 268 260 257 266 239 231 228 254 213 109 321 273 278 295 307 272 187 205 205 222 220 231 245 268 298 314 250 262 282 305 321 327 311 308 329 329 328 333 317 331 348 335 341 346 350
79 98 124 128 139 155 167 167 184 186 179 196 187 182 185 196 192 179 171 202 216 213 171 218 222 250 256 259 253 255 267 254 245 182 229 240 243 245 174 221 258 270 287 291 301 290 163 212 233 252 249 235 230 245 282 311 305 319 321 321 331 320 326 332 335 330 329 335 350 341 337 341 354 1
133 153 162 175 175 176 176 186 188 189 184 187 189 205 204 193 195 199 206 218 229 151 194 214 219 231 226 254 244 240 248 273 248 186 204 237 202 213 205 242 259 252 221 268 279 284 318 329 319 260 236 246 228 214 214 222 272 306 310 316 313 317 318 326 329 325 324 321 317 334 349 345 351 4
155 161 177 189 192 192 188 195 199 192 185 201 198 204 188 198 200 207 212 219 195 188 198 218 228 233 226 248 252 249 254 267 286 252 212 219 214 232 224 228 264 270 264 272 271 290 352 326 342 335 335 351 344 318 207 209 270 282 296 291 298 305 316 328 325 328 328 338 356 350 340 353 354 358
186 180 186 192 200 189 193 207 202 193 195 198 205 193 189 205 197 195 222 204 181 197 203 224 230 229 232 241 255 256 260 259 268 269 239 207 214 232 212 239 258 271 274 264 275 300 315 301 330 329 324 304 255 296 314 208 200 249 281 309 321 317 312 321 325 304 341 350 356 355 353 347 340 352
182 195 193 198 200 193 206 198 198 204 200 197 201 198 198 207 207 212 209 171 196 204 208 202 224 219 223 224 236 236 233 219 252 251 250 205 212 206 238 240 226 248 271 266 261 281 280 284 235 302 324 315 327 317 288 37 255 265 229 322 322 325 322 322 323 337 1 341 341 4 343 316 341 347
199 183 197 205 207 205 206 204 192 202 202 206 201 202 212 220 216 209 181 182 207 205 195 205 219 214 223 210 220 248 239 214 234 255 244 222 202 215 205 238 269 244 256 278 277 270 242 252 270 265 273 302 315 314 323 316 311 194 207 26 311 308 319 325 337 340 329 341 358 335 318 322 349 357
187 188 197 202 207 202 201 206 196 206 205 203 206 208 215 220 215 200 194 214 205 201 193 199 213 221 220 212 208 226 239 223 227 229 236 217 203 200 202 199 254 249 277 296 305 297 235 236 251 242 232 268 280 295 298 304 287 292 315 311 264 288 313 351 315 318 326 340 347 319 244 246 260 272
200 192 199 201 207 196 208 193 196 198 201 204 205 210 211 217 212 206 206 218 222 221 209 215 224 216 221 221 210 211 237 239 239 234 226 219 197 202 215 194 219 266 284 284 301 300 300 282 252 243 237 256 270 298 294 271 274 285 286 303 217 235 318 328 320 325 321 341 331 339 344 339 3 355
189 199 210 201 205 193 195 201 206 196 205 208 208 209 211 217 218 220 214 214 203 206 216 225 208 209 227 205 193 185 226 237 230 232 228 215 198 199 199 184 228 192 245 278 270 282 273 288 257 249 279 276 283 250 238 269 292 309 325 327 337 321 303 305 303 311 303 317 330 335 342 352 334 350
190 202 200 196 203 201 192 202 201 200 209 198 204 203 209 214 220 225 224 229 219 221 226 229 220 211 223 210 193 189 214 240 235 229 216 199 203 201 188 195 228 196 194 255 263 272 274 99 313 299 278 263 221 243 297 293 286 299 306 313 322 317 318 317 311 287 279 324 352 356 342 348 353 6
189 198 197 199 199 197 198 202 201 198 208 199 204 207 204 212 211 215 211 215 212 207 210 216 211 207 219 212 200 197 207 235 227 220 197 192 188 199 205 207 222 215 217 246 269 276 288 299 292 272 277 235 234 209 279 287 288 286 292 313 321 331 321 345 337 354 27 153 197 7 322 328 341 2
190 192 200 187 192 198 201 202 205 203 197 196 198 192 204 203 212 215 210 210 202 212 217 220 209 207 220 219 201 205 211 228 211 200 202 201 191 201 220 228 215 225 232 254 283 286 285 283 269 215 242 238 196 216 264 286 290 284 294 305 307 320 329 337 351 131 117 104 65 30 9 283 251 252
191 195 189 185 184 188 190 194 194 197 196 201 193 202 201 203 217 216 212 211 213 211 207 210 217 221 228 219 203 224 230 223 218 210 213 202 204 210 219 228 231 236 251 249 283 289 292 298 279 156 231 241 195 238 270 255 276 303 304 324 313 317 326 345 355 2 6 51 27 12 360 353 356 2